EW2896 Weather Reports


time (UTC)temp
C
wind
direction
speed
KPH
gust
KPH
rain 1hr
cm
rain 24hr
cm
rain mn
cm
humidity
%
barometer
mb
20260502183105 7 33 1.6 4.8 0.00 0.05 0.00 71 1019.2
20260502182605 7 298 1.6 8.0 0.00 0.05 0.00 69 1019.2
20260502182105 7 21 3.2 8.0 0.00 0.05 0.00 68 1019.1
20260502181606 7 29 3.2 9.7 0.00 0.05 0.00 66 1019.2
20260502181105 8 40 3.2 8.0 0.00 0.05 0.00 66 1019.2
20260502180605 8 277 3.2 8.0 0.00 0.05 0.00 64 1019.1
20260502180106 8 294 1.6 4.8 0.00 0.05 0.00 61 1018.9
20260502170106 8 305 4.8 11.3 0.00 0.08 0.00 65 1019.2
20260502164105 7 261 1.6 4.8 0.00 0.08 0.00 63 1019.2
20260502163605 7 7 3.2 8.0 0.00 0.10 0.00 64 1019.3
20260502163105 7 20 3.2 4.8 0.00 0.10 0.00 64 1019.4
20260502162606 7 284 1.6 4.8 0.00 0.13 0.00 65 1019.4
20260502162106 7 17 1.6 4.8 0.00 0.13 0.00 66 1019.4
20260502161605 7 14 3.2 4.8 0.00 0.15 0.00 67 1019.4
20260502160606 7 84 1.6 4.8 0.00 0.18 0.00 65 1019.4
20260502160105 7 35 3.2 4.8 0.00 0.18 0.00 65 1019.4
20260502151605 7 344 3.2 8.0 0.00 0.28 0.00 66 1019.3
20260502150605 7 237 1.6 8.0 0.00 0.30 0.00 67 1019.3
20260502150105 7 20 1.6 12.9 0.00 0.30 0.00 65 1019.3
20260502140105 6 268 3.2 8.0 0.00 0.38 0.00 66 1019.0
20260502130605 5 313 0.0 4.8 0.00 0.41 0.00 77 1019.1
20260502130105 4 224 1.6 4.8 0.00 0.41 0.00 77 1019.1
20260502123605 3 26 0.0 3.2 0.00 0.41 0.00 81 1019.0
20260502123105 3 28 0.0 3.2 0.00 0.41 0.00 81 1019.0
20260502122606 2 29 0.0 3.2 0.00 0.41 0.00 81 1019.0
20260502122105 2 28 0.0 0.0 0.00 0.41 0.00 82 1018.9
20260502121605 2 28 0.0 1.6 0.00 0.41 0.00 83 1018.8
20260502121105 2 29 0.0 3.2 0.00 0.41 0.00 84 1018.9
20260502120605 2 29 1.6 4.8 0.00 0.41 0.00 84 1018.9
20260502120105 1 20 1.6 3.2 0.00 0.41 0.00 86 1018.9
20260502115605 1 19 0.0 4.8 0.00 0.41 0.00 87 1018.9
20260502115105 1 22 0.0 4.8 0.00 0.41 0.00 88 1018.8
20260502114605 1 22 0.0 3.2 0.00 0.41 0.00 89 1018.8
20260502114105 1 26 0.0 3.2 0.00 0.41 0.00 90 1018.8
20260502113605 1 26 0.0 4.8 0.00 0.41 0.00 90 1018.9
20260502113106 0 10 0.0 0.0 0.00 0.41 0.00 90 1018.9
20260502112106 0 10 0.0 0.0 0.00 0.41 0.00 90 1019.0
20260502111605 0 10 0.0 0.0 0.00 0.41 0.00 90 1018.9
20260502110605 0 10 0.0 0.0 0.00 0.41 0.00 90 1018.9
20260502110105 0 10 0.0 0.0 0.00 0.41 0.00 89 1018.7
20260502105606 0 10 0.0 0.0 0.00 0.41 0.00 89 1018.7
20260502104605 0 10 0.0 0.0 0.00 0.41 0.00 89 1018.7
20260502104105 0 10 0.0 0.0 0.00 0.41 0.00 89 1018.7
20260502103605 0 10 0.0 0.0 0.00 0.41 0.00 89 1018.7
20260502103105 0 10 0.0 0.0 0.00 0.41 0.00 89 1018.7
20260502102605 0 10 0.0 0.0 0.00 0.41 0.00 89 1018.6
20260502101605 0 10 0.0 0.0 0.00 0.41 0.00 89 1018.5
20260502100606 0 10 0.0 0.0 0.00 0.41 0.00 88 1018.5
20260502100106 1 10 0.0 0.0 0.00 0.41 0.00 88 1018.5
20260502091106 1 10 0.0 0.0 0.00 0.41 0.00 88 1018.6
20260502090605 1 10 0.0 0.0 0.00 0.41 0.00 88 1018.6
20260502090105 1 10 0.0 0.0 0.00 0.41 0.00 88 1018.5
20260502071106 2 10 0.0 0.0 0.00 0.41 0.00 89 1018.2
20260502070105 3 10 0.0 0.0 0.00 0.41 0.00 89 1018.3
20260502065605 3 10 0.0 0.0 0.00 0.41 0.00 89 1018.5
20260502065105 3 10 0.0 0.0 0.00 0.41 0.00 89 1018.5
20260502064605 3 10 0.0 0.0 0.00 0.41 0.00 89 1018.5
20260502064105 3 10 0.0 0.0 0.00 0.41 0.00 89 1018.5
20260502063605 3 10 0.0 0.0 0.00 0.41 0.00 89 1018.5
20260502063105 3 10 0.0 0.0 0.00 0.41 0.00 89 1018.4
20260502062605 3 10 0.0 0.0 0.00 0.41 0.00 89 1018.5
20260502062105 3 10 0.0 0.0 0.00 0.41 0.00 89 1018.6
20260502061605 3 10 0.0 0.0 0.00 0.41 0.00 89 1018.6
20260502061105 3 10 0.0 0.0 0.00 0.41 0.00 89 1018.7
20260502060605 3 10 0.0 0.0 0.00 0.41 0.00 89 1018.7
20260502060106 4 10 0.0 0.0 0.00 0.41 0.00 89 1018.7
20260502055605 4 10 0.0 0.0 0.00 0.41 0.00 89 1018.8
20260502055106 4 10 0.0 0.0 0.00 0.41 0.00 90 1018.8
20260502054605 4 10 0.0 0.0 0.00 0.41 0.00 90 1018.9
20260502054105 4 10 0.0 0.0 0.00 0.41 0.00 90 1018.9
20260502053605 4 10 0.0 0.0 0.00 0.41 0.00 89 1018.8
20260502053105 3 10 0.0 0.0 0.00 0.41 0.00 89 1018.8
20260502052605 3 10 0.0 0.0 0.00 0.41 0.00 89 1018.8
20260502052105 3 10 0.0 0.0 0.00 0.41 0.00 89 1018.8
20260502051605 3 10 0.0 0.0 0.00 0.41 0.00 89 1018.8
20260502051105 3 10 0.0 0.0 0.00 0.41 0.00 89 1018.9
20260502050605 3 10 0.0 0.0 0.00 0.41 0.00 89 1018.9
20260502050106 3 10 0.0 0.0 0.00 0.41 0.00 88 1018.9
20260502045605 3 10 0.0 0.0 0.00 0.41 0.00 88 1018.9
20260502045105 3 10 0.0 0.0 0.00 0.41 0.00 88 1018.8
20260502044605 4 10 0.0 0.0 0.00 0.41 0.00 87 1018.8
20260502044105 4 10 0.0 0.0 0.00 0.41 0.00 87 1018.8
20260502043605 4 10 0.0 0.0 0.00 0.41 0.00 87 1018.8
20260502043106 4 10 0.0 0.0 0.00 0.41 0.00 87 1018.8
20260502042105 5 10 0.0 0.0 0.00 0.41 0.00 87 1018.9
20260502041105 5 10 0.0 0.0 0.00 0.41 0.00 87 1018.9
20260502040105 5 10 0.0 0.0 0.00 0.41 0.00 86 1018.9
20260502035606 5 10 0.0 0.0 0.00 0.41 0.41 86 1018.9
20260502035105 5 10 0.0 0.0 0.00 0.41 0.41 86 1018.9
20260502034605 5 10 0.0 0.0 0.00 0.41 0.41 86 1018.9
20260502034105 6 10 0.0 0.0 0.00 0.41 0.41 85 1018.9
20260502033605 6 10 0.0 0.0 0.00 0.41 0.41 85 1018.9
20260502033105 6 10 0.0 0.0 0.00 0.41 0.41 85 1018.9
20260502032605 6 10 0.0 0.0 0.00 0.41 0.41 85 1019.0
20260502032105 6 10 0.0 0.0 0.00 0.41 0.41 85 1019.0
20260502031605 6 10 0.0 0.0 0.00 0.41 0.41 85 1018.9
20260502030106 6 10 0.0 0.0 0.00 0.41 0.41 85 1019.0
20260502025605 6 10 0.0 0.0 0.00 0.41 0.41 85 1018.9
20260502025105 6 10 0.0 0.0 0.00 0.41 0.41 85 1018.7
20260502024605 6 10 0.0 0.0 0.00 0.41 0.41 85 1018.8
20260502023605 6 10 0.0 0.0 0.00 0.41 0.41 84 1018.8
20260502023106 6 10 0.0 0.0 0.00 0.41 0.41 84 1018.8
20260502022605 6 10 0.0 0.0 0.00 0.41 0.41 84 1018.7
20260502022105 6 10 0.0 0.0 0.00 0.41 0.41 84 1018.6
20260502021605 6 10 0.0 0.0 0.00 0.41 0.41 84 1018.6
20260502021105 6 10 0.0 0.0 0.00 0.41 0.41 83 1018.5
20260502020604 6 10 0.0 0.0 0.00 0.41 0.41 83 1018.5
20260502020105 6 10 0.0 0.0 0.00 0.41 0.41 83 1018.3
20260502015605 6 10 0.0 0.0 0.00 0.41 0.41 82 1018.4
20260502015105 6 10 0.0 0.0 0.00 0.41 0.41 82 1018.5
20260502014105 7 10 0.0 0.0 0.00 0.41 0.41 82 1018.4
20260502013605 7 10 0.0 0.0 0.00 0.41 0.41 82 1018.2
20260502013105 7 10 0.0 0.0 0.00 0.41 0.41 82 1018.0
20260502012605 7 11 0.0 0.0 0.00 0.41 0.41 82 1018.0
20260502012106 7 5 0.0 0.0 0.00 0.41 0.41 82 1017.8
20260502011605 7 11 0.0 0.0 0.00 0.41 0.41 83 1017.7
20260502011105 7 11 0.0 0.0 0.00 0.41 0.41 83 1017.6
20260502010605 7 11 0.0 0.0 0.00 0.41 0.41 83 1017.5
20260502010105 7 10 0.0 0.0 0.00 0.41 0.41 82 1017.5
20260502005605 7 5 0.0 0.0 0.00 0.41 0.41 82 1017.6
20260502005106 7 5 0.0 0.0 0.00 0.41 0.41 82 1017.6
20260502004605 7 5 0.0 0.0 0.00 0.41 0.41 82 1017.7
20260502004105 7 5 0.0 0.0 0.00 0.41 0.41 82 1017.7
20260502003605 7 5 0.0 0.0 0.00 0.41 0.41 81 1017.8
20260502003106 7 5 0.0 0.0 0.00 0.41 0.41 81 1017.8
20260502002605 7 5 0.0 0.0 0.00 0.41 0.41 81 1017.8
20260502002105 7 5 0.0 0.0 0.00 0.41 0.41 81 1017.7
20260502001605 7 5 0.0 0.0 0.00 0.41 0.41 80 1017.6
20260502001105 7 5 0.0 0.0 0.00 0.41 0.41 80 1017.4
20260502000605 7 5 0.0 0.0 0.00 0.41 0.41 80 1017.3
20260502000105 7 5 0.0 0.0 0.00 0.41 0.41 80 1017.2
20260501235605 7 5 0.0 0.0 0.00 0.41 0.41 80 1017.1
20260501234605 7 18 1.6 3.2 0.00 0.41 0.41 79 1017.0
20260501234105 7 4 0.0 4.8 0.00 0.41 0.41 79 1016.8
20260501233604 7 17 1.6 4.8 0.00 0.41 0.41 79 1016.8
20260501233105 7 275 0.0 3.2 0.00 0.41 0.41 79 1016.8
20260501232105 7 273 0.0 0.0 0.00 0.41 0.41 78 1016.5
20260501231605 7 272 0.0 1.6 0.00 0.41 0.41 77 1016.4
20260501231105 7 316 0.0 4.8 0.00 0.41 0.41 77 1016.5
20260501230605 8 282 1.6 4.8 0.00 0.41 0.41 76 1016.4
20260501230105 8 250 1.6 3.2 0.00 0.41 0.41 76 1016.5
20260501225605 8 242 3.2 8.0 0.00 0.41 0.41 76 1016.4
20260501225105 8 317 0.0 4.8 0.00 0.41 0.41 77 1016.4
20260501224605 8 39 1.6 4.8 0.00 0.41 0.41 77 1016.3
20260501224105 8 40 1.6 8.0 0.00 0.41 0.41 77 1016.3
20260501223605 8 352 0.0 12.9 0.00 0.41 0.41 78 1016.4
20260501223105 8 132 1.6 9.7 0.00 0.41 0.41 77 1016.6
20260501222604 8 273 1.6 4.8 0.00 0.41 0.41 78 1016.6
20260501221604 8 255 1.6 4.8 0.00 0.41 0.41 78 1016.6
20260501221105 8 87 1.6 4.8 0.00 0.41 0.41 77 1016.5
20260501220605 8 349 1.6 4.8 0.00 0.41 0.41 78 1016.6
20260501220105 8 37 1.6 4.8 0.00 0.41 0.41 78 1016.5
20260501215604 8 18 1.6 8.0 0.00 0.41 0.41 77 1016.3
20260501214105 8 32 3.2 8.0 0.00 0.41 0.41 79 1016.1
20260501213105 8 25 1.6 4.8 0.00 0.41 0.41 80 1015.8
20260501212605 8 19 1.6 8.0 0.00 0.41 0.41 79 1015.8
20260501211105 8 339 0.0 4.8 0.03 0.41 0.41 80 1015.5
20260501210605 8 283 3.2 9.7 0.03 0.41 0.41 79 1015.4
20260501210105 8 41 3.2 4.8 0.03 0.41 0.41 79 1015.4
20260501204605 8 298 1.6 8.0 0.03 0.41 0.41 79 1015.3
20260501204105 8 338 3.2 8.0 0.03 0.41 0.41 77 1015.3
20260501203106 8 0 3.2 12.9 0.03 0.41 0.41 78 1015.2
20260501201605 8 134 3.2 9.7 0.00 0.38 0.38 78 1015.1
20260501200606 9 341 1.6 8.0 0.00 0.38 0.38 81 1015.0
20260501200106 9 336 3.2 4.8 0.03 0.38 0.38 80 1014.9
20260501195605 9 34 3.2 8.0 0.03 0.38 0.38 80 1014.8
20260501195105 9 273 1.6 9.7 0.03 0.38 0.38 81 1014.7
20260501194605 9 266 3.2 11.3 0.03 0.38 0.38 81 1014.6
20260501194105 10 15 4.8 14.5 0.03 0.38 0.38 80 1014.5
20260501193605 10 319 3.2 14.5 0.03 0.38 0.38 82 1014.4
20260501193106 10 336 4.8 14.5 0.03 0.38 0.38 82 1014.3
20260501192605 10 283 4.8 9.7 0.03 0.38 0.38 83 1014.3
20260501192105 10 287 4.8 14.5 0.03 0.38 0.38 84 1014.1
20260501191605 10 199 3.2 12.9 0.03 0.38 0.38 86 1013.9
20260501191105 10 247 3.2 4.8 0.03 0.38 0.38 87 1013.8
20260501190605 10 50 1.6 11.3 0.03 0.38 0.38 86 1013.7
20260501190105 10 9 3.2 4.8 0.00 0.36 0.36 87 1013.5
20260501185605 10 204 1.6 8.0 0.00 0.36 0.36 89 1013.6
20260501185105 9 210 1.6 4.8 0.00 0.36 0.36 91 1013.7
20260501184105 8 193 0.0 4.8 0.00 0.36 0.36 89 1013.8
20260501183605 8 160 3.2 4.8 0.00 0.36 0.36 89 1013.8